Temperature
26 27 27 27 27 27 27 27 27 28 28 28 28 27 27 26 26 26 25 24 23 22 21 20 20 20 20 19 19 20 20 20 20 19 19 19 19 19 18 18 18 19 19 19
27 27 27 27 26 26 27 27 27 27 27 28 27 27 26 25 25 23 23 22 22 22 21 20 19 19 19 19 19 19 20 20 20 19 20 19 19 19 19 19 18 18 18 18
26 27 27 27 26 27 27 27 27 26 27 27 27 27 26 25 25 23 22 21 21 20 20 19 19 18 18 18 18 18 19 19 19 19 19 19 18 18 18 18 18 18 18 18
26 26 26 27 26 26 26 27 26 26 26 27 27 26 28 26 26 25 23 22 21 20 19 19 18 18 17 17 17 17 18 18 18 18 18 18 18 18 18 18 17 17 17 17
26 26 26 26 26 26 26 26 26 26 26 26 27 26 28 26 26 25 24 22 21 20 20 18 18 17 17 17 17 17 17 17 17 17 17 17 17 17 17 17 16 16 16 16
26 26 26 26 26 26 26 26 26 26 26 25 26 26 26 27 25 24 24 22 21 21 20 19 18 17 17 16 16 16 16 16 17 16 17 17 16 16 16 16 16 16 16 16
25 26 26 26 26 26 26 25 25 25 25 25 25 24 26 25 24 24 23 22 21 20 20 19 18 17 17 16 16 16 15 16 16 16 16 16 16 16 16 15 15 15 15 15
24 25 26 26 26 25 25 24 23 22 23 25 25 24 26 24 23 22 21 21 20 20 20 19 18 18 17 16 16 15 15 15 15 15 15 15 15 15 15 15 15 15 15 14
25 24 25 25 26 25 25 25 25 23 24 23 25 25 25 23 23 22 22 21 21 20 19 19 18 17 17 16 15 15 14 14 14 14 14 14 14 14 14 14 14 14 14 14
25 24 25 25 25 24 25 25 24 23 22 23 24 24 24 23 23 23 23 22 21 20 19 18 17 16 16 15 15 14 14 14 14 14 14 14 13 13 13 13 13 13 13 13
26 24 25 25 24 25 24 24 23 24 23 22 22 24 25 24 24 23 23 22 21 20 19 18 17 16 15 14 14 14 13 13 13 13 13 13 13 13 12 12 12 12 12 12
25 25 24 25 25 24 24 24 23 22 22 22 22 23 25 24 23 23 22 21 20 19 18 17 16 15 15 14 14 13 13 13 13 13 13 12 12 12 12 12 12 12 12 12
24 23 23 24 24 23 23 23 23 23 22 22 22 23 25 23 23 22 22 21 20 19 18 17 16 15 14 13 13 13 12 12 12 12 12 12 12 11 11 11 11 11 11 11
23 23 23 23 24 24 24 24 23 22 22 22 22 23 24 24 24 23 22 21 20 19 17 17 16 14 14 13 12 12 12 12 12 12 12 11 11 11 11 11 11 11 11 11
23 23 23 24 24 24 23 23 24 23 22 22 22 23 23 24 23 22 21 20 19 19 18 17 16 14 13 13 12 12 12 12 12 11 11 11 11 11 11 11 11 11 11 11
22 22 22 22 23 23 23 23 23 23 23 23 22 23 24 23 22 21 20 20 19 19 18 17 16 14 13 13 13 12 12 12 12 11 11 11 11 11 11 11 11 11 11 11
23 21 21 22 23 22 22 23 23 23 23 23 22 23 24 23 22 21 20 20 19 19 18 17 16 15 14 13 13 12 12 11 11 11 11 11 11 11 11 11 11 11 11 11
21 20 21 22 21 20 23 24 23 22 23 23 23 23 23 22 21 20 19 19 19 18 17 17 16 15 14 13 12 12 12 11 11 11 11 11 11 11 11 11 11 11 11 11
20 20 21 21 21 22 23 23 23 22 21 23 23 22 22 21 20 21 20 19 18 18 17 16 15 15 14 13 12 12 12 11 11 11 11 11 11 11 11 11 11 11 11 11
19 19 20 21 20 20 22 22 21 21 21 22 22 21 21 21 21 22 20 19 18 17 16 16 15 14 14 13 12 12 12 12 11 11 11 11 11 11 11 11 11 11 11 10
20 20 20 20 20 21 22 21 21 20 20 19 19 20 20 20 20 20 19 19 18 17 16 16 15 14 13 13 12 11 12 11 11 11 11 11 11 11 11 11 11 10 10 10
20 20 20 19 19 20 20 20 18 18 17 18 18 18 19 19 19 19 19 18 17 17 16 15 15 14 13 12 12 11 11 11 11 11 11 11 11 11 10 10 10 10 10 10
20 20 20 19 19 19 18 17 16 16 16 16 17 17 18 18 18 18 18 18 18 17 16 15 15 14 13 12 12 11 11 11 10 10 10 11 10 10 10 10 10 10 9 10
20 19 18 18 18 17 16 15 14 13 14 14 15 16 16 17 17 17 18 18 17 16 16 15 15 14 13 12 12 11 11 10 10 10 10 10 10 10 10 10 10 10 10 10
18 17 16 16 15 13 13 11 11 11 12 12 13 14 14 15 15 16 16 16 16 16 15 15 14 14 14 13 12 11 11 10 10 10 10 10 10 10 10 10 10 10 10 10
12 11 11 11 9 9 9 8 9 10 10 10 11 11 11 12 12 13 14 14 15 15 15 14 14 14 14 13 12 11 11 10 10 10 10 10 10 10 10 10 9 9 9 9
Wind_Speed
3 3 1 2 2 2 2 4 4 1 1 4 4 3 3 6 6 5 5 4 3 2 1 2 4 6 8 9 10 11 12 12 11 10 10 10 11 10 9 8 8 8 7 6
5 3 4 2 2 3 4 4 3 3 1 5 6 6 1 3 5 6 6 6 6 4 3 2 1 3 5 7 9 10 12 12 13 12 10 9 9 8 9 7 6 7 6 5
1 3 2 1 3 3 2 3 3 5 5 8 9 11 8 4 3 4 6 7 7 7 6 5 4 3 3 4 7 8 10 11 12 12 10 8 7 7 8 9 8 8 7 6
3 1 2 3 1 4 4 2 6 8 11 11 7 13 10 7 5 3 5 7 7 7 7 7 6 6 5 6 6 6 7 8 10 11 12 13 12 12 12 9 8 8 7 7
2 3 5 6 3 6 6 5 9 12 14 16 16 15 11 7 7 3 4 6 7 7 7 7 7 7 7 7 7 6 7 7 8 10 12 13 14 12 8 7 8 8 7 7
3 3 5 5 3 4 5 9 12 12 13 15 12 11 11 6 5 3 2 4 6 7 7 7 7 7 7 8 7 7 7 8 8 8 10 11 13 12 10 9 9 8 6 6
3 3 3 4 6 4 6 10 9 8 8 7 2 8 7 3 4 2 1 3 6 7 8 9 9 9 9 9 9 8 8 8 8 9 9 10 11 11 11 10 10 9 7 6
4 2 2 2 4 5 6 8 8 8 10 12 11 9 3 3 4 3 4 6 7 8 8 9 10 10 10 10 10 10 9 9 8 8 7 6 6 6 6 8 7 7 6 6
4 2 3 1 3 6 6 6 7 11 15 14 8 6 5 5 6 7 8 8 9 9 9 10 11 11 11 11 10 10 10 9 8 7 6 4 3 2 3 3 4 5 5 5
5 7 4 4 5 3 5 7 7 7 7 11 10 10 6 5 6 7 8 10 10 10 10 11 10 10 10 10 9 8 8 8 7 6 3 1 1 1 1 2 2 3 4 4
7 8 7 6 8 9 6 7 7 8 8 10 11 8 2 5 7 8 10 10 10 10 10 10 10 9 9 8 7 6 6 5 4 3 1 1 2 2 3 3 3 2 2 3
5 9 11 10 3 4 9 10 9 10 12 13 15 13 4 6 7 10 12 12 11 9 9 9 8 8 7 6 5 4 3 3 1 1 2 3 3 3 3 2 2 1 1 2
3 7 12 11 6 7 8 10 12 12 14 15 17 13 3 6 11 13 14 13 11 9 8 7 7 6 6 5 4 3 1 2 1 1 2 3 3 3 3 2 2 2 3 3
4 11 14 17 15 15 14 14 14 15 15 18 20 22 19 19 18 17 14 12 10 9 7 7 6 5 5 4 3 3 1 0 1 1 2 3 4 3 4 4 3 4 4 4
4 12 15 17 18 18 19 20 19 20 21 23 24 24 21 19 17 15 12 10 10 9 8 7 6 5 5 5 5 4 3 3 2 2 3 4 5 6 6 6 6 5 5 6
5 10 15 18 18 18 20 22 22 22 22 23 24 24 20 16 13 12 11 10 10 10 9 7 6 6 6 7 6 6 5 4 4 4 5 6 8 8 8 7 7 7 7 7
9 10 13 15 14 14 13 12 12 14 15 18 20 19 16 16 15 13 11 10 10 10 9 8 8 7 7 8 7 7 6 5 5 5 5 7 9 10 9 9 9 8 8 8
9 10 7 10 10 9 6 7 10 14 16 16 17 17 18 18 15 12 10 10 10 9 9 8 8 8 8 8 8 7 6 6 6 6 6 8 9 10 10 9 9 8 7 8
5 6 7 8 11 12 10 9 10 13 16 15 14 14 15 13 11 13 10 9 9 8 8 8 8 8 9 9 9 8 7 7 7 7 7 8 10 11 11 10 10 8 8 8
4 5 7 9 11 9 7 11 9 11 13 8 12 14 16 14 14 12 6 5 8 8 8 8 8 9 9 10 9 9 9 8 8 7 7 8 10 11 11 11 10 9 8 9
5 7 9 12 12 8 7 11 14 12 13 20 22 22 21 19 17 18 15 11 9 9 9 10 10 10 10 10 10 10 10 9 8 7 7 8 9 9 10 10 10 10 10 9
8 6 6 7 8 5 12 16 14 17 22 24 24 24 24 23 22 20 19 15 13 11 11 12 11 11 10 11 11 11 10 9 8 8 9 9 9 9 10 11 11 11 11 11
5 6 8 7 9 13 16 17 19 21 22 23 23 24 23 23 22 21 20 17 15 14 12 13 13 12 12 12 12 12 10 9 9 10 10 10 10 9 10 11 12 12 11 10
7 5 8 10 10 15 17 19 21 22 23 23 23 22 22 22 22 20 19 17 15 13 13 14 15 14 14 14 13 12 10 10 11 11 11 10 10 10 10 9 10 11 11 11
9 9 8 11 11 14 14 20 23 23 23 22 21 20 20 20 19 19 18 17 15 13 13 14 16 16 16 15 14 13 12 12 12 12 11 11 11 10 10 10 8 9 10 8
7 7 6 6 12 11 13 18 22 22 22 22 22 21 20 19 19 18 17 16 15 13 12 14 17 17 17 16 16 15 14 13 13 12 12 11 10 10 10 10 9 7 5 9
Wind_Direction
190 222 32 7 319 309 273 262 253 257 338 282 270 286 359 16 21 26 20 8 353 321 287 251 237 233 230 224 223 222 224 219 215 217 220 223 228 232 236 240 247 250 253 257
196 114 49 54 154 201 220 241 237 202 276 288 280 272 212 42 43 37 34 30 22 16 20 5 301 251 238 232 231 230 226 224 221 222 222 228 234 237 231 229 228 229 237 243
229 66 46 139 152 192 206 272 301 297 288 250 271 259 200 165 112 77 63 54 45 33 18 7 354 329 294 267 256 251 245 239 235 233 229 230 229 234 230 225 222 221 215 213
238 180 269 258 266 289 262 318 296 287 283 281 275 284 257 194 175 108 70 59 49 37 26 16 3 350 334 314 298 286 275 265 256 246 238 232 231 234 232 226 220 210 206 208
232 255 262 264 284 291 307 310 289 284 280 278 268 269 274 189 215 154 74 55 42 31 21 13 4 353 343 333 320 305 292 281 267 257 249 243 243 242 236 220 212 209 203 202
285 261 268 283 271 281 292 280 273 262 264 266 271 275 277 223 209 165 84 41 24 13 5 359 351 343 338 334 326 313 301 290 279 267 257 249 246 241 232 218 209 202 193 188
270 229 202 249 253 229 288 302 295 272 252 276 350 281 276 104 151 180 319 342 345 343 339 337 336 335 331 328 325 316 306 296 289 278 269 261 255 246 237 222 208 199 189 187
292 235 170 256 299 314 317 305 305 301 300 305 293 267 293 144 189 221 259 283 297 304 311 315 317 319 318 317 316 312 307 300 295 286 278 273 265 256 243 222 208 194 187 181
292 292 153 220 286 298 299 296 317 290 283 282 274 263 260 192 221 238 257 269 280 290 299 302 306 310 311 310 309 308 305 302 298 290 277 262 249 248 241 198 189 178 166 163
292 290 248 200 226 218 290 306 279 281 293 290 282 278 269 207 242 262 277 286 290 291 294 300 302 304 308 307 306 306 304 302 302 298 281 233 173 153 158 140 126 141 145 151
275 279 269 231 252 286 267 266 279 284 280 285 291 296 344 276 279 289 299 302 296 294 299 302 303 304 304 302 302 306 309 308 317 321 354 65 87 92 98 99 100 109 143 164
273 279 283 275 260 266 271 273 269 274 279 268 275 285 300 261 272 287 294 297 295 292 297 301 303 301 299 297 297 301 322 339 2 32 84 80 76 93 111 116 104 118 139 169
269 270 279 272 223 213 238 250 260 269 274 272 273 277 292 255 272 283 286 289 287 282 287 294 297 298 295 290 282 274 327 357 28 87 82 93 109 118 124 125 134 140 137 141
260 266 272 281 292 299 282 272 261 262 268 274 273 281 291 296 298 297 292 285 279 277 278 283 289 287 280 267 255 251 236 275 56 92 114 139 142 152 158 156 152 143 143 141
251 272 276 279 285 286 283 280 275 263 262 272 281 286 293 303 307 302 293 283 276 276 276 276 276 272 258 242 230 237 242 231 210 201 193 177 165 160 160 158 154 150 149 145
256 281 287 284 283 282 280 275 273 271 269 269 274 279 286 296 302 296 284 274 275 280 276 268 259 254 244 238 233 236 242 244 239 224 207 184 172 164 164 162 158 153 146 136
264 274 288 286 294 293 278 278 281 279 275 273 276 284 295 300 298 294 286 277 278 282 276 264 255 248 238 234 234 239 245 250 252 241 208 181 176 169 164 164 160 152 145 138
265 272 269 286 297 272 291 319 296 292 290 289 287 289 294 297 298 289 274 271 277 277 269 261 253 245 234 228 227 236 246 248 247 235 207 184 174 166 162 164 157 150 147 142
238 248 271 280 287 288 295 312 316 305 298 300 305 308 308 310 296 276 257 245 257 267 262 256 246 238 228 224 223 228 239 245 244 232 205 183 175 167 166 166 159 154 151 143
190 229 263 277 288 290 326 9 346 307 291 350 341 327 319 311 294 302 312 245 240 240 238 235 230 225 219 219 219 227 238 241 239 227 201 181 174 170 170 167 162 156 151 145
257 252 260 277 278 278 354 354 329 302 326 337 323 314 307 302 296 301 300 277 252 236 225 217 216 215 215 212 213 227 238 240 234 214 190 176 170 169 167 162 159 157 156 147
294 287 283 282 277 287 4 340 330 316 316 312 308 304 300 298 296 293 290 281 262 241 224 211 206 208 207 206 210 225 234 234 221 205 189 176 172 169 164 163 162 162 157 153
261 300 305 291 290 325 335 327 326 323 315 312 308 304 299 296 295 294 291 286 269 247 229 210 204 204 201 201 208 223 227 219 213 204 191 177 171 171 169 169 167 166 170 173
285 317 287 288 292 326 333 340 340 334 325 319 314 309 304 299 297 296 293 289 277 253 229 211 203 202 200 201 206 216 218 209 210 203 189 178 175 176 176 178 177 178 180 181
325 314 299 288 323 338 346 351 345 341 339 338 334 329 324 317 310 304 298 293 285 264 235 214 206 203 200 197 201 206 206 203 207 202 191 186 185 183 178 184 181 190 185 183
14 8 342 339 348 327 337 341 342 341 341 341 341 340 340 337 331 325 315 307 298 279 247 222 212 206 200 195 197 199 199 200 204 201 196 193 190 186 187 179 169 61 89 108
Height
1517 1512 1511 1511 1510 1511 1512 1511 1510 1508 1507 1505 1505 1505 1505 1506 1504 1504 1504 1505 1506 1508 1509 1510 1511 1512 1513 1514 1514 1515 1516 1517 1518 1519 1520 1521 1521 1522 1523 1524 1524 1525 1525 1526
1513 1513 1513 1513 1512 1512 1512 1512 1510 1508 1507 1506 1505 1504 1505 1506 1507 1507 1507 1506 1507 1507 1508 1508 1509 1509 1510 1510 1511 1511 1511 1512 1512 1513 1513 1515 1516 1516 1516 1517 1517 1518 1519 1519
1513 1514 1513 1512 1512 1511 1511 1511 1511 1511 1506 1503 1504 1501 1502 1504 1506 1507 1507 1508 1508 1508 1508 1508 1507 1507 1507 1507 1507 1507 1506 1506 1507 1507 1507 1507 1508 1508 1509 1509 1510 1510 1512 1512
1513 1514 1514 1511 1512 1511 1511 1509 1511 1510 1510 1504 1503 1509 1494 1496 1500 1504 1507 1507 1508 1508 1508 1508 1507 1506 1505 1505 1504 1502 1502 1501 1501 1501 1502 1501 1501 1501 1502 1502 1503 1504 1504 1504
1514 1513 1513 1513 1512 1512 1510 1511 1510 1508 1507 1506 1498 1502 1491 1493 1497 1501 1505 1507 1508 1508 1508 1507 1506 1505 1503 1502 1500 1499 1498 1496 1496 1496 1495 1495 1495 1496 1496 1496 1496 1497 1497 1497
1512 1513 1512 1510 1511 1512 1510 1510 1506 1504 1503 1509 1498 1502 1496 1486 1494 1500 1505 1506 1507 1508 1507 1506 1505 1504 1502 1500 1498 1496 1494 1493 1492 1491 1490 1489 1490 1490 1489 1490 1490 1490 1491 1492
1513 1510 1510 1511 1510 1509 1509 1513 1515 1512 1506 1502 1497 1505 1495 1492 1498 1502 1504 1505 1506 1506 1506 1505 1504 1502 1500 1498 1496 1494 1491 1489 1488 1486 1485 1484 1484 1484 1484 1484 1484 1485 1487 1488
1519 1517 1509 1510 1510 1512 1511 1515 1524 1530 1519 1506 1497 1500 1491 1495 1499 1503 1504 1505 1505 1505 1504 1503 1502 1500 1497 1495 1493 1491 1488 1486 1484 1483 1481 1480 1479 1479 1479 1480 1480 1481 1483 1484
1515 1516 1511 1512 1511 1511 1512 1511 1511 1518 1512 1512 1498 1491 1490 1496 1498 1500 1501 1502 1502 1502 1501 1501 1499 1497 1494 1492 1490 1488 1485 1483 1481 1479 1478 1477 1476 1476 1476 1476 1477 1478 1479 1481
1510 1516 1508 1511 1512 1512 1511 1509 1512 1516 1523 1516 1501 1494 1492 1493 1494 1494 1496 1497 1498 1498 1498 1497 1495 1493 1491 1488 1486 1484 1482 1480 1478 1476 1475 1474 1474 1473 1474 1474 1475 1476 1476 1478
1508 1515 1509 1509 1509 1507 1509 1510 1511 1509 1513 1518 1512 1498 1485 1489 1491 1492 1492 1493 1494 1494 1494 1493 1491 1490 1487 1485 1483 1481 1479 1477 1475 1474 1473 1473 1472 1472 1472 1473 1473 1475 1476 1478
1509 1509 1510 1503 1502 1507 1507 1508 1508 1516 1513 1508 1509 1499 1481 1487 1489 1491 1491 1491 1491 1491 1490 1489 1487 1486 1484 1482 1480 1478 1476 1474 1473 1472 1471 1471 1471 1471 1472 1473 1473 1475 1477 1478
1511 1514 1516 1506 1506 1506 1506 1503 1504 1504 1506 1505 1504 1494 1480 1485 1486 1486 1486 1487 1487 1487 1486 1485 1484 1482 1481 1479 1478 1476 1475 1473 1471 1471 1470 1470 1470 1471 1472 1473 1474 1476 1478 1479
1513 1511 1513 1514 1504 1497 1498 1497 1498 1502 1504 1498 1492 1485 1479 1478 1478 1479 1480 1482 1482 1482 1482 1481 1480 1479 1478 1477 1476 1475 1474 1472 1471 1470 1469 1469 1470 1471 1473 1474 1475 1477 1479 1480
1511 1508 1503 1499 1495 1494 1494 1493 1491 1493 1493 1494 1486 1481 1477 1476 1475 1476 1477 1478 1478 1478 1478 1477 1477 1476 1475 1475 1474 1474 1473 1472 1470 1469 1469 1470 1470 1471 1473 1475 1477 1479 1480 1482
1509 1508 1503 1500 1494 1491 1491 1487 1486 1484 1482 1481 1480 1477 1473 1473 1474 1474 1474 1474 1474 1473 1473 1474 1474 1473 1473 1472 1472 1472 1471 1470 1469 1469 1469 1469 1469 1471 1474 1476 1478 1480 1481 1483
1503 1507 1507 1500 1489 1491 1491 1480 1478 1477 1474 1474 1475 1472 1468 1469 1470 1471 1471 1471 1470 1469 1470 1470 1470 1470 1470 1470 1470 1470 1470 1469 1468 1467 1467 1468 1469 1471 1474 1476 1478 1480 1482 1483
1506 1506 1504 1496 1496 1501 1481 1474 1476 1476 1473 1469 1468 1467 1468 1467 1467 1468 1468 1467 1466 1466 1466 1466 1467 1467 1467 1467 1467 1468 1468 1467 1466 1466 1466 1466 1468 1470 1473 1475 1478 1480 1482 1484
1506 1505 1500 1497 1495 1487 1477 1474 1475 1477 1474 1469 1467 1466 1466 1465 1465 1462 1462 1462 1463 1463 1462 1463 1463 1463 1463 1464 1465 1465 1465 1465 1464 1464 1464 1465 1466 1468 1471 1474 1476 1479 1481 1483
1505 1504 1501 1496 1501 1497 1481 1478 1480 1480 1475 1469 1469 1469 1467 1465 1462 1457 1457 1458 1458 1458 1458 1458 1458 1459 1460 1460 1461 1462 1462 1462 1462 1462 1462 1463 1465 1467 1469 1472 1475 1477 1480 1482
1498 1498 1498 1496 1495 1484 1478 1482 1481 1483 1478 1475 1473 1471 1467 1463 1461 1459 1457 1456 1454 1453 1453 1453 1453 1454 1455 1456 1457 1458 1459 1459 1459 1460 1460 1461 1463 1465 1468 1470 1473 1476 1479 1481
1497 1493 1494 1494 1496 1490 1484 1484 1487 1487 1482 1478 1473 1469 1464 1460 1456 1454 1452 1451 1450 1449 1448 1448 1448 1449 1450 1452 1453 1454 1455 1456 1456 1457 1458 1459 1461 1464 1466 1468 1471 1474 1477 1480
1495 1493 1493 1494 1493 1489 1489 1490 1488 1485 1480 1474 1469 1464 1460 1455 1451 1449 1446 1444 1443 1443 1442 1442 1442 1444 1445 1446 1448 1450 1451 1452 1453 1454 1455 1457 1459 1462 1464 1466 1469 1472 1475 1478
1489 1493 1494 1493 1489 1491 1491 1490 1487 1484 1478 1472 1466 1460 1455 1450 1446 1443 1441 1438 1437 1436 1435 1435 1436 1437 1439 1441 1443 1445 1447 1448 1449 1451 1452 1454 1457 1459 1462 1464 1467 1470 1472 1476
1496 1495 1495 1495 1494 1495 1493 1492 1489 1483 1476 1469 1463 1457 1452 1447 1442 1439 1435 1433 1431 1429 1428 1428 1428 1429 1432 1434 1437 1439 1442 1443 1445 1447 1449 1451 1454 1456 1459 1461 1464 1467 1470 1473
1509 1509 1507 1505 1508 1504 1499 1495 1489 1483 1476 1469 1462 1455 1450 1446 1440 1435 1431 1428 1425 1423 1421 1421 1421 1422 1425 1427 1430 1433 1436 1438 1441 1443 1445 1448 1451 1453 1456 1459 1461 1463 1467 1469